| time (UTC) | temp F | wind direction | speed MPH | gust MPH | rain 1hr in | rain 24hr in | rain mn in | humidity % | barometer mb |
| 20260903183738 | 69 | 252 | 3.0 | 6.0 | 0.00 | 0.01 | 0.01 | 75 | 1015.6 |
| 20260903182730 | 70 | 244 | 3.0 | 6.0 | 0.00 | 0.01 | 0.01 | 75 | 1015.8 |
| 20260903181726 | 69 | 248 | 3.0 | 9.0 | 0.00 | 0.01 | 0.01 | 74 | 1015.9 |
| 20260903180725 | 70 | 257 | 3.0 | 6.0 | 0.00 | 0.01 | 0.01 | 73 | 1015.8 |
| 20260903175721 | 70 | 257 | 4.0 | 8.0 | 0.00 | 0.01 | 0.01 | 72 | 1015.7 |
| 20260903174741 | 70 | 247 | 4.0 | 8.0 | 0.00 | 0.01 | 0.01 | 70 | 1015.5 |
| 20260903173740 | 71 | 257 | 5.0 | 9.0 | 0.00 | 0.01 | 0.01 | 68 | 1015.3 |
| 20260903172742 | 71 | 249 | 4.0 | 8.0 | 0.00 | 0.01 | 0.01 | 68 | 1015.3 |
| 20260903171729 | 72 | 258 | 4.0 | 8.0 | 0.00 | 0.01 | 0.01 | 66 | 1015.0 |
| 20260903170733 | 73 | 241 | 3.0 | 7.0 | 0.00 | 0.01 | 0.01 | 65 | 1015.2 |
| 20260903165727 | 73 | 243 | 4.0 | 9.0 | 0.00 | 0.01 | 0.01 | 65 | 1015.2 |
| 20260903164723 | 73 | 251 | 3.0 | 9.0 | 0.00 | 0.01 | 0.01 | 66 | 1015.3 |
| 20260903163739 | 73 | 260 | 5.0 | 11.0 | 0.00 | 0.01 | 0.01 | 64 | 1015.3 |
| 20260903162736 | 74 | 256 | 6.0 | 14.0 | 0.00 | 0.01 | 0.01 | 63 | 1015.2 |
| 20260903161734 | 74 | 240 | 5.0 | 11.0 | 0.00 | 0.01 | 0.01 | 65 | 1015.2 |
| 20260903160737 | 74 | 282 | 4.0 | 8.0 | 0.00 | 0.01 | 0.01 | 66 | 1015.1 |
| 20260903155724 | 73 | 263 | 5.0 | 9.0 | 0.00 | 0.01 | 0.01 | 68 | 1015.0 |
| 20260903154730 | 73 | 259 | 4.0 | 10.0 | 0.00 | 0.01 | 0.01 | 68 | 1015.0 |
| 20260903153743 | 74 | 255 | 5.0 | 10.0 | 0.00 | 0.01 | 0.01 | 68 | 1015.0 |
| 20260903152740 | 74 | 257 | 5.0 | 9.0 | 0.00 | 0.01 | 0.01 | 70 | 1015.0 |
| 20260903151730 | 73 | 247 | 5.0 | 11.0 | 0.00 | 0.01 | 0.01 | 72 | 1015.0 |
| 20260903150734 | 73 | 260 | 5.0 | 8.0 | 0.00 | 0.01 | 0.01 | 71 | 1015.0 |
| 20260903145726 | 73 | 261 | 5.0 | 8.0 | 0.00 | 0.01 | 0.01 | 70 | 1015.1 |
| 20260903144725 | 73 | 281 | 5.0 | 10.0 | 0.00 | 0.01 | 0.01 | 71 | 1015.2 |
| 20260903143721 | 72 | 255 | 6.0 | 13.0 | 0.00 | 0.01 | 0.01 | 71 | 1015.0 |
| 20260903142738 | 72 | 272 | 5.0 | 13.0 | 0.00 | 0.01 | 0.01 | 75 | 1015.1 |
| 20260903141739 | 71 | 255 | 4.0 | 8.0 | 0.00 | 0.01 | 0.01 | 78 | 1014.9 |
| 20260903140731 | 70 | 245 | 4.0 | 9.0 | 0.00 | 0.01 | 0.01 | 80 | 1015.2 |
| 20260903135732 | 70 | 249 | 3.0 | 6.0 | 0.00 | 0.01 | 0.01 | 81 | 1015.1 |
| 20260903134731 | 70 | 277 | 3.0 | 6.0 | 0.00 | 0.01 | 0.01 | 80 | 1015.1 |
| 20260903133725 | 70 | 260 | 4.0 | 10.0 | 0.00 | 0.01 | 0.01 | 81 | 1015.1 |
| 20260903132720 | 71 | 261 | 4.0 | 8.0 | 0.00 | 0.01 | 0.01 | 81 | 1015.0 |
| 20260903131740 | 70 | 262 | 4.0 | 7.0 | 0.00 | 0.01 | 0.01 | 83 | 1015.1 |
| 20260903130734 | 70 | 246 | 4.0 | 7.0 | 0.00 | 0.01 | 0.01 | 82 | 1015.1 |
| 20260903125730 | 69 | 240 | 4.0 | 8.0 | 0.00 | 0.01 | 0.01 | 83 | 1015.1 |
| 20260903124732 | 69 | 258 | 4.0 | 10.0 | 0.00 | 0.01 | 0.01 | 83 | 1015.0 |
| 20260903123729 | 69 | 255 | 3.0 | 7.0 | 0.00 | 0.01 | 0.01 | 85 | 1015.0 |
| 20260903122722 | 68 | 251 | 3.0 | 7.0 | 0.00 | 0.01 | 0.01 | 84 | 1015.0 |
| 20260903121738 | 68 | 265 | 4.0 | 8.0 | 0.00 | 0.01 | 0.01 | 85 | 1015.1 |
| 20260903120738 | 68 | 255 | 4.0 | 8.0 | 0.00 | 0.01 | 0.01 | 85 | 1015.1 |
| 20260903115736 | 68 | 271 | 4.0 | 9.0 | 0.00 | 0.01 | 0.01 | 86 | 1015.0 |
| 20260903114735 | 68 | 249 | 4.0 | 7.0 | 0.01 | 0.01 | 0.01 | 87 | 1015.0 |
| 20260903113725 | 67 | 273 | 4.0 | 9.0 | 0.01 | 0.01 | 0.01 | 89 | 1015.2 |
| 20260903112728 | 66 | 251 | 3.0 | 6.0 | 0.01 | 0.01 | 0.01 | 91 | 1015.1 |
| 20260903111723 | 65 | 254 | 4.0 | 7.0 | 0.01 | 0.01 | 0.01 | 92 | 1015.3 |
| 20260903110745 | 65 | 254 | 3.0 | 6.0 | 0.01 | 0.01 | 0.01 | 93 | 1015.3 |
| 20260903105737 | 64 | 256 | 4.0 | 9.0 | 0.01 | 0.01 | 0.01 | 92 | 1015.3 |
| 20260903104739 | 64 | 260 | 3.0 | 9.0 | 0.00 | 0.00 | 0.00 | 91 | 1015.4 |
| 20260903103734 | 65 | 261 | 4.0 | 9.0 | 0.00 | 0.00 | 0.00 | 89 | 1015.3 |
| 20260903102725 | 65 | 263 | 5.0 | 9.0 | 0.00 | 0.00 | 0.00 | 88 | 1015.3 |
| 20260903101725 | 64 | 262 | 3.0 | 6.0 | 0.00 | 0.00 | 0.00 | 88 | 1015.2 |
| 20260903100727 | 64 | 258 | 3.0 | 6.0 | 0.00 | 0.00 | 0.00 | 89 | 1015.0 |
| 20260903095737 | 64 | 262 | 2.0 | 6.0 | 0.00 | 0.00 | 0.00 | 90 | 1015.1 |
| 20260903094738 | 63 | 251 | 3.0 | 8.0 | 0.00 | 0.00 | 0.00 | 90 | 1015.2 |
| 20260903093730 | 63 | 250 | 4.0 | 9.0 | 0.00 | 0.00 | 0.00 | 90 | 1015.2 |
| 20260903092739 | 64 | 264 | 5.0 | 10.0 | 0.00 | 0.00 | 0.00 | 88 | 1015.0 |
| 20260903091726 | 65 | 258 | 4.0 | 9.0 | 0.00 | 0.00 | 0.00 | 84 | 1015.1 |
| 20260903090729 | 66 | 260 | 4.0 | 8.0 | 0.00 | 0.00 | 0.00 | 80 | 1015.1 |
| 20260903085726 | 66 | 263 | 3.0 | 7.0 | 0.00 | 0.00 | 0.00 | 79 | 1014.8 |
| 20260903084738 | 66 | 280 | 3.0 | 7.0 | 0.00 | 0.00 | 0.00 | 79 | 1014.8 |
| 20260903083737 | 66 | 252 | 3.0 | 6.0 | 0.00 | 0.00 | 0.00 | 80 | 1014.8 |
| 20260903082734 | 66 | 272 | 4.0 | 9.0 | 0.00 | 0.00 | 0.00 | 79 | 1014.8 |
| 20260903081732 | 66 | 274 | 4.0 | 7.0 | 0.00 | 0.00 | 0.00 | 79 | 1014.9 |
| 20260903080731 | 66 | 257 | 3.0 | 8.0 | 0.00 | 0.00 | 0.00 | 78 | 1014.9 |
| 20260903075729 | 65 | 264 | 3.0 | 7.0 | 0.00 | 0.00 | 0.00 | 78 | 1014.9 |
| 20260903074737 | 65 | 200 | 1.0 | 6.0 | 0.00 | 0.00 | 0.00 | 78 | 1014.9 |
| 20260903073735 | 65 | 234 | 2.0 | 6.0 | 0.00 | 0.00 | 0.00 | 78 | 1015.0 |
| 20260903072737 | 65 | 255 | 3.0 | 6.0 | 0.00 | 0.00 | 0.00 | 78 | 1015.1 |
| 20260903071731 | 65 | 246 | 2.0 | 7.0 | 0.00 | 0.00 | 0.00 | 78 | 1015.1 |
| 20260903070727 | 65 | 261 | 4.0 | 7.0 | 0.00 | 0.00 | 0.00 | 78 | 1014.9 |
| 20260903065722 | 65 | 250 | 3.0 | 7.0 | 0.00 | 0.00 | 0.00 | 78 | 1015.1 |
| 20260903064719 | 65 | 258 | 2.0 | 4.0 | 0.00 | 0.00 | 0.00 | 76 | 1015.1 |
| 20260903063740 | 65 | 249 | 2.0 | 6.0 | 0.00 | 0.00 | 0.00 | 76 | 1015.1 |
| 20260903062736 | 64 | 239 | 3.0 | 7.0 | 0.00 | 0.00 | 0.00 | 76 | 1015.2 |
| 20260903061731 | 64 | 220 | 2.0 | 4.0 | 0.00 | 0.00 | 0.00 | 76 | 1015.2 |
| 20260903060729 | 64 | 246 | 2.0 | 7.0 | 0.00 | 0.00 | 0.00 | 76 | 1015.3 |
| 20260903055727 | 64 | 279 | 2.0 | 6.0 | 0.00 | 0.00 | 0.00 | 76 | 1015.3 |
| 20260903054723 | 64 | 263 | 3.0 | 7.0 | 0.00 | 0.00 | 0.00 | 77 | 1015.3 |
| 20260903053720 | 64 | 271 | 3.0 | 6.0 | 0.00 | 0.00 | 0.00 | 74 | 1015.2 |
| 20260903052743 | 64 | 245 | 2.0 | 4.0 | 0.00 | 0.00 | 0.00 | 74 | 1015.0 |
| 20260903051734 | 63 | 226 | 1.0 | 6.0 | 0.00 | 0.00 | 0.00 | 77 | 1014.9 |
| 20260903050738 | 63 | 146 | 1.0 | 4.0 | 0.00 | 0.00 | 0.00 | 78 | 1014.8 |
| 20260903045727 | 63 | 249 | 1.0 | 4.0 | 0.00 | 0.00 | 0.00 | 80 | 1015.1 |
| 20260903044724 | 62 | 199 | 1.0 | 3.0 | 0.00 | 0.00 | 0.00 | 81 | 1015.1 |
| 20260903043722 | 62 | 177 | 1.0 | 3.0 | 0.00 | 0.00 | 0.00 | 83 | 1015.1 |
| 20260903042718 | 62 | 148 | 1.0 | 4.0 | 0.00 | 0.00 | 0.00 | 85 | 1015.2 |
| 20260903041736 | 61 | 146 | 1.0 | 2.0 | 0.00 | 0.00 | 0.00 | 87 | 1015.5 |
| 20260903040733 | 61 | 172 | 1.0 | 3.0 | 0.00 | 0.00 | 0.00 | 89 | 1015.7 |
| 20260903035735 | 61 | 145 | 1.0 | 2.0 | 0.00 | 0.00 | 0.00 | 90 | 1015.6 |
| 20260903034725 | 61 | 205 | 1.0 | 4.0 | 0.00 | 0.00 | 0.00 | 90 | 1015.7 |
| 20260903033731 | 62 | 274 | 2.0 | 8.0 | 0.00 | 0.00 | 0.00 | 88 | 1015.9 |
| 20260903032722 | 63 | 278 | 4.0 | 8.0 | 0.00 | 0.00 | 0.00 | 82 | 1016.3 |
| 20260903031738 | 64 | 259 | 5.0 | 10.0 | 0.00 | 0.00 | 0.00 | 76 | 1016.1 |
| 20260903030740 | 64 | 265 | 3.0 | 7.0 | 0.00 | 0.00 | 0.00 | 75 | 1016.1 |
| 20260903025737 | 63 | 273 | 1.0 | 4.0 | 0.00 | 0.00 | 0.00 | 77 | 1016.2 |
| 20260903024733 | 63 | 250 | 2.0 | 7.0 | 0.00 | 0.00 | 0.00 | 78 | 1016.2 |
| 20260903023727 | 63 | 225 | 1.0 | 6.0 | 0.00 | 0.00 | 0.00 | 79 | 1016.2 |
| 20260903022723 | 63 | 133 | 1.0 | 2.0 | 0.00 | 0.00 | 0.00 | 79 | 1016.2 |
| 20260903021720 | 62 | 161 | 0.0 | 2.0 | 0.00 | 0.00 | 0.00 | 80 | 1016.2 |
| 20260903020748 | 62 | 162 | 1.0 | 3.0 | 0.00 | 0.00 | 0.00 | 80 | 1016.3 |
| 20260903015744 | 62 | 151 | 0.0 | 2.0 | 0.00 | 0.00 | 0.00 | 81 | 1016.5 |
| 20260903014738 | 63 | 158 | 1.0 | 2.0 | 0.00 | 0.00 | 0.00 | 80 | 1016.7 |
| 20260903013735 | 63 | 225 | 1.0 | 2.0 | 0.00 | 0.00 | 0.00 | 80 | 1016.8 |
| 20260903012732 | 63 | 245 | 2.0 | 4.0 | 0.00 | 0.00 | 0.00 | 79 | 1017.0 |
| 20260903011727 | 63 | 249 | 2.0 | 4.0 | 0.00 | 0.00 | 0.00 | 78 | 1017.1 |
| 20260903010729 | 63 | 257 | 2.0 | 4.0 | 0.00 | 0.00 | 0.00 | 78 | 1017.2 |
| 20260903005741 | 64 | 264 | 5.0 | 8.0 | 0.00 | 0.00 | 0.00 | 77 | 1017.3 |
| 20260903004740 | 65 | 252 | 3.0 | 7.0 | 0.00 | 0.00 | 0.00 | 73 | 1017.3 |
| 20260903003738 | 64 | 281 | 2.0 | 7.0 | 0.00 | 0.00 | 0.00 | 74 | 1017.2 |
| 20260903002736 | 64 | 233 | 2.0 | 6.0 | 0.00 | 0.00 | 0.00 | 75 | 1017.3 |
| 20260903001737 | 64 | 156 | 1.0 | 2.0 | 0.00 | 0.00 | 0.00 | 76 | 1017.4 |
| 20260903000729 | 64 | 147 | 1.0 | 3.0 | 0.00 | 0.00 | 0.00 | 77 | 1017.4 |
| 20260902235719 | 63 | 148 | 1.0 | 4.0 | 0.00 | 0.00 | 0.00 | 78 | 1017.4 |
| 20260902234743 | 63 | 114 | 1.0 | 3.0 | 0.00 | 0.00 | 0.00 | 78 | 1017.6 |
| 20260902233739 | 63 | 135 | 1.0 | 3.0 | 0.00 | 0.00 | 0.00 | 79 | 1017.6 |
| 20260902232734 | 63 | 148 | 1.0 | 3.0 | 0.00 | 0.00 | 0.00 | 81 | 1017.7 |
| 20260902231729 | 62 | 150 | 0.0 | 2.0 | 0.00 | 0.00 | 0.00 | 82 | 1017.8 |
| 20260902230738 | 62 | 168 | 0.0 | 2.0 | 0.00 | 0.00 | 0.00 | 83 | 1017.9 |
| 20260902225723 | 62 | 161 | 0.0 | 2.0 | 0.00 | 0.00 | 0.00 | 83 | 1018.0 |
| 20260902224725 | 62 | 176 | 0.0 | 1.0 | 0.00 | 0.00 | 0.00 | 83 | 1018.1 |
| 20260902223736 | 62 | 186 | 0.0 | 1.0 | 0.00 | 0.00 | 0.00 | 84 | 1018.2 |
| 20260902222742 | 62 | 152 | 0.0 | 1.0 | 0.00 | 0.00 | 0.00 | 84 | 1018.3 |
| 20260902221731 | 62 | 139 | 0.0 | 1.0 | 0.00 | 0.00 | 0.00 | 85 | 1018.4 |
| 20260902220741 | 62 | 157 | 0.0 | 1.0 | 0.00 | 0.00 | 0.00 | 85 | 1018.5 |
| 20260902215725 | 62 | 176 | 0.0 | 2.0 | 0.00 | 0.00 | 0.00 | 86 | 1018.5 |
| 20260902214728 | 62 | 151 | 0.0 | 1.0 | 0.00 | 0.00 | 0.00 | 86 | 1018.4 |
| 20260902213720 | 62 | 177 | 0.0 | 1.0 | 0.00 | 0.00 | 0.00 | 86 | 1018.4 |
| 20260902212741 | 62 | 131 | 0.0 | 1.0 | 0.00 | 0.00 | 0.00 | 86 | 1018.5 |
| 20260902211736 | 62 | 141 | 0.0 | 1.0 | 0.00 | 0.00 | 0.00 | 86 | 1018.4 |
| 20260902210733 | 62 | 120 | 0.0 | 1.0 | 0.00 | 0.00 | 0.00 | 85 | 1018.6 |
| 20260902205733 | 62 | 0.0 | 0.0 | 0.00 | 0.00 | 0.00 | 84 | 1018.6 | |
| 20260902204736 | 62 | 149 | 0.0 | 1.0 | 0.00 | 0.00 | 0.00 | 84 | 1018.6 |
| 20260902203725 | 63 | 79 | 0.0 | 1.0 | 0.00 | 0.00 | 0.00 | 83 | 1018.8 |
| 20260902202723 | 63 | 0.0 | 0.0 | 0.00 | 0.00 | 0.00 | 83 | 1018.9 | |
| 20260902201739 | 63 | 0.0 | 0.0 | 0.00 | 0.00 | 0.00 | 82 | 1018.8 | |
| 20260902200740 | 63 | 0.0 | 0.0 | 0.00 | 0.00 | 0.00 | 81 | 1018.9 | |
| 20260902195729 | 63 | 159 | 0.0 | 1.0 | 0.00 | 0.00 | 0.00 | 81 | 1018.7 |
| 20260902194727 | 63 | 154 | 0.0 | 1.0 | 0.00 | 0.00 | 0.00 | 82 | 1018.8 |
| 20260902193728 | 63 | 127 | 0.0 | 1.0 | 0.00 | 0.00 | 0.00 | 83 | 1018.9 |
| 20260902192720 | 63 | 0.0 | 0.0 | 0.00 | 0.00 | 0.00 | 84 | 1019.0 | |
| 20260902191718 | 63 | 0.0 | 0.0 | 0.00 | 0.00 | 0.00 | 84 | 1018.9 | |
| 20260902190736 | 63 | 0.0 | 0.0 | 0.00 | 0.00 | 0.00 | 84 | 1018.9 | |
| 20260902185735 | 63 | 0.0 | 0.0 | 0.00 | 0.00 | 0.00 | 85 | 1018.9 | |
| 20260902184737 | 63 | 251 | 1.0 | 2.0 | 0.00 | 0.00 | 0.00 | 85 | 1019.0 |